Home > Weather > New Salem > Past weeks

Flag for USA Past Weather in New Salem, North Dakota, USA — Yesterday and Last 2 Weeks

Now
65 °F

Passing clouds.


Feels Like: 65 °F
Forecast: 59 / 71 °F
Wind: 3 mph from East

Location: Bismarck Municipal Airport

Current Time: Jul 28, 2016 at 1:40:10 AM

Latest Report: Jul 28, 2016 at 12:52 AM


Visibility: 10 mi

Pressure: 30.12 "Hg (27.87 "Hg at 664m altitude)

Humidity: 91%

Dew Point: 62 °F

Location of New SalemLocation

Past Weather in New Salem — Graph

°F

New Salem Temperature Yesterday

Maximum temperature yesterday: 78 °F (at 4:52 PM)
Minimum temperature yesterday: 59 °F (at 6:52 AM)
Average temperature yesterday: 69 °F

High & Low Weather Summary for the Past Weeks

 TemperatureHumidityPressure
High97 °F (Jul 20, 4:52 PM)100% (Jul 15, 5:52 AM)30.14 "Hg (Jul 15, 5:52 AM)
Low51 °F (Jul 15, 5:52 AM)32% (Jul 23, 6:52 PM)29.70 "Hg (Jul 12, 11:52 PM)
Average73 °F70%29.95 "Hg
* Reported Jul 12 11:52 PM — Jul 27 11:52 PM, New Salem, Weather by CustomWeather, © 2016

Note: Actual official high and low records may vary slightly from our data, if they occured in-between our weather recording intervals... More about our weather records

Advertising

New Salem Weather History for the Previous 24 Hours

Scroll right to see more
 ConditionsComfort  
Time TempWeatherWind HumidityBarometerVisibility
11:52 PM
Wed, Jul 27
66 °FPassing clouds.7 mph87%30.11 "Hg10 mi
10:52 PM67 °FLight rain. Overcast.5 mph87%30.12 "Hg10 mi
9:52 PM70 °FBroken clouds.8 mph73%30.10 "Hg10 mi
8:52 PM72 °FScattered clouds.7 mph66%30.09 "Hg10 mi
7:52 PM73 °FScattered clouds.8 mph64%30.08 "Hg10 mi
6:52 PM74 °FBroken clouds.5 mph64%30.08 "Hg10 mi
5:52 PM76 °FOvercast.8 mph58%30.07 "Hg10 mi
4:52 PM78 °FScattered clouds.8 mph54%30.08 "Hg10 mi
3:52 PM76 °FSunny.5 mph60%30.09 "Hg10 mi
2:52 PM75 °FOvercast.7 mph64%30.10 "Hg10 mi
1:52 PM75 °FSunny.10 mph66%30.11 "Hg10 mi
12:52 PM76 °FScattered clouds.8 mph64%30.11 "Hg10 mi
11:52 AM74 °FBroken clouds.7 mph71%30.10 "Hg10 mi
10:52 AM73 °FSunny.5 mph74%30.09 "Hg10 mi
9:52 AM70 °FPassing clouds.3 mph76%30.09 "Hg10 mi
8:52 AM68 °FSunny.5 mph84%30.09 "Hg10 mi
7:52 AM65 °FScattered clouds.No wind91%30.08 "Hg10 mi
6:52 AM59 °FClear.5 mph96%30.07 "Hg10 mi
6:01 AM60 °FPassing clouds.No wind96%30.09 "Hg10 mi
4:52 AM62 °FClear.7 mph93%30.05 "Hg10 mi
3:52 AM63 °FClear.6 mph90%30.04 "Hg10 mi
2:52 AM63 °FClear.5 mph90%30.04 "Hg10 mi
1:52 AM63 °FClear.6 mph93%30.04 "Hg10 mi
Weather by CustomWeather, © 2016

See weather overviewHow to use our weather pages